• MPC Preparation (Info)

  • MPEC 2016-O181: 2015 OV79

    The following Minor Planet Electronic Circular may be linked-to from your own Web pages, but must not otherwise be redistributed electronically.

    A form allowing access to any MPEC is at the bottom of this page.


    Read MPEC 2016-O180 Read MPEC 2016-O182


    M.P.E.C. 2016-O181                               Issued 2016 July 17, 10:19 UT
    
         The Minor Planet Electronic Circulars contain information on unusual
             minor planets and routine data on comets.  They are published
        on behalf of Division F of the International Astronomical Union by the
              Minor Planet Center, Smithsonian Astrophysical Observatory,
                              Cambridge, MA 02138, U.S.A.
    
                 Prepared using the Tamkin Foundation Computer Network
    
                                  MPC@CFA.HARVARD.EDU
                URL https://www.minorplanetcenter.net/    ISSN 1523-6714
    
                                       2015 OV79
    
    Observations:
         K15O79V  C2014 07 02.54256 22 16 57.261-27 13 06.87         21.9 wLEO181F51
         K15O79V  C2014 07 02.55247 22 16 57.221-27 13 06.91         22.1 wLEO181F51
         K15O79V  C2014 07 02.56236 22 16 57.210-27 13 07.57         22.0 wLEO181F51
         K15O79V  C2014 07 02.57227 22 16 57.176-27 13 08.06         21.7 wLEO181F51
         K15O79V  C2014 07 31.50260 22 15 08.179-27 32 15.37         22.1 wLEO181F51
         K15O79V  C2014 07 31.51259 22 15 08.140-27 32 15.74         22.1 wLEO181F51
         K15O79V  C2014 07 31.52255 22 15 08.105-27 32 15.98         21.8 wLEO181F51
         K15O79V  C2014 07 31.53250 22 15 08.055-27 32 16.58         22.3 wLEO181F51
         K15O79V* C2015 07 26.50031 22 21 50.581-27 35 16.04         21.9 wLEO181F51
         K15O79V  C2015 07 26.51151 22 21 50.542-27 35 16.56         21.9 wLEO181F51
         K15O79V  C2015 07 26.52087 22 21 50.500-27 35 16.97         22.1 wLEO181F51
         K15O79V  C2015 07 26.53207 22 21 50.453-27 35 17.30         22.1 wLEO181F51
         K15O79V  C2015 07 27.54630 22 21 46.093-27 35 58.14         22.1 wLEO181F51
         K15O79V  C2015 07 27.55684 22 21 46.037-27 35 58.48         22.0 wLEO181F51
         K15O79V  C2015 07 27.56739 22 21 45.994-27 35 58.88         22.0 wLEO181F51
         K15O79V  C2015 07 27.57793 22 21 45.942-27 35 59.49         22.3 wLEO181F51
    
    Observer details:
    F51 Pan-STARRS 1, Haleakala.  Observers B. Gibson, T. Goggia, N. Primak,
        A. Schultz, M. Willman.  Measurers K. Chambers, S. Chastel, Y.-T. Chen,
        L. Denneau, H. Flewelling, M. Holman, M. Huber, R. Jedicke, M. Lackner,
        E. Lilly, H.-W. Lin, E. Magnier, M. Micheli, M. Payne, P. Veres,
        R. Wainscoat, C. Waters, R. Weryk.  1.8-m Ritchey-Chretien + CCD.
    
    Orbital elements:
    2015 OV79
    Epoch 2016 July 31.0 TT = JDT 2457600.5                 MPC
    M 265.79565              (2000.0)            P               Q
    n   0.00384682     Peri.  315.39009     +0.20721976     -0.86963155
    a  40.3399012      Node   117.59385     +0.97760127     +0.16683283
    e   0.0634890      Incl.   30.37258     +0.03682026     +0.46465877
    P 256              H    5.7           G   0.15           U   5
    Residuals in seconds of arc
    140702 F51  0.0   0.1-    140731 F51  0.1+  0.1+    150727 F51  0.1+  0.0
    140702 F51  0.1-  0.2+    140731 F51  0.1+  0.1-    150727 F51  0.0   0.1+
    140702 F51  0.1+  0.0     150726 F51  0.1-  0.0     150727 F51  0.0   0.1+
    140702 F51  0.0   0.1-    150726 F51  0.0   0.0     150727 F51  0.1-  0.1-
    140731 F51  0.2-  0.0     150726 F51  0.0   0.1-
    140731 F51  0.0   0.0     150726 F51  0.0   0.0
    
    Ephemeris:
    2015 OV79                a,e,i = 40.34, 0.06, 30                 q = 37.779
    Date    TT    R. A. (2000) Decl.     Delta      r     Elong.  Phase     V
    2016 06 17    22 29 57.2 -27 14 43  40.2420 40.6953   115.9     1.3    22.0
    ...
    2016 07 02    22 29 31.0 -27 24 18  40.0394 40.6928   129.4     1.1    21.9
    ...
    2016 07 10    22 29 08.8 -27 29 44  39.9475 40.6914   136.5     1.0    21.9
    ...
    2016 07 16    22 28 48.9 -27 33 52  39.8874 40.6904   141.8     0.9    21.9
    2016 07 17    22 28 45.3 -27 34 34  39.8781 40.6903   142.6     0.9    21.9
    2016 07 18    22 28 41.7 -27 35 16  39.8691 40.6901   143.5     0.9    21.9
    ...
    2016 07 24    22 28 18.4 -27 39 24  39.8200 40.6891   148.4     0.7    21.9
    ...
    2016 08 01    22 27 44.0 -27 44 51  39.7685 40.6877   154.6     0.6    21.9
    ...
    2016 08 16    22 26 32.0 -27 54 26  39.7182 40.6852   162.5     0.4    21.8
    
    A. U. Tomatic                (C) Copyright 2016 MPC           M.P.E.C. 2016-O181
    

    Read MPEC 2016-O180 Read MPEC 2016-O182


    MPEC number:

    Enter an MPEC number in one of the following forms:

    • 1997-B01 (the full form)
    • J97B01 (the packed version of the full form)
    • B01 (the abbreviated form)